Regional Weather Roundup
Issued by NWS Newport/Morehead, NC

Current Version | Previous Version | Text Only | Print | Product List | Glossary On
Versions: 1 2 3 4 5 6 7 8 9 10 11 12 13 14 15 16 17 18 19 20 21 22 23 24 25 26 27 28 29 30 31 32 33 34 35 36 37 38 39 40 41 42 43 44 45 46 47 48 49 50
000 ASUS42 KMHX 281413 RWRMHX WEATHER ROUNDUP FOR EASTERN NORTH CAROLINA NATIONAL WEATHER SERVICE NEWPORT/MOREHEAD CITY NC 1000 AM EDT WED SEP 28 2016 NOTE: "FAIR" INDICATES FEW OR NO CLOUDS BELOW 12,000 FEET WITH NO SIGNIFICANT WEATHER AND/OR OBSTRUCTIONS TO VISIBILITY NCZ015>017-031-032-045>047-102-103-281500- NORTH COAST CITY SKY/WX TMP DP RH WIND PRES REMARKS EDENTON PTSUNNY 77 72 84 CALM 29.99R ELIZABETH CITY SUNNY 76 71 85 E3 29.98R KITTY HAWK PTSUNNY 79 76 89 NE5 29.96S MANTEO MOSUNNY 76 72 87 E7 29.98R $$ NCZ045>047-081-094-103-104-281500- CENTRAL COAST CITY SKY/WX TMP DP RH WIND PRES REMARKS FRISCO MOSUNNY 79 72 79 NE7 29.98R $$ NCZ095-097-098-100-101-281500- SOUTHERN COAST CITY SKY/WX TMP DP RH WIND PRES REMARKS BEAUFORT SUNNY 80 66 62 CALM 29.99R CEDAR ISLAND NOT AVBL JACKSONVILLE SUNNY 78 72 81 VRB3 29.97R PINEY ISLAND SUNNY N/A N/A N/A VRB3 29.98R WILMINGTON SUNNY 79 72 79 CALM 29.98R $$ NCZ011>013-027>030-043-044-078>080-089-090>093-098-281500- COASTAL PLAIN CITY SKY/WX TMP DP RH WIND PRES REMARKS AHOSKIE LGT RAIN 70 69 97 CALM 29.98R CLINTON SUNNY 76 72 85 CALM 29.97R ELIZABETHTOWN SUNNY 77 72 84 S3 29.96S GOLDSBORO SUNNY 78 75 91 S7 29.95R GREENVILLE SUNNY 79 72 78 S5 29.99R HAVELOCK MOSUNNY 79 70 74 SW5 29.99R KENANSVILLE SUNNY 75 72 88 S5 29.97R KINSTON SUNNY 77 72 83 S7 29.98R NEW BERN SUNNY 79 70 74 SW3 29.98R RICHLANDS SUNNY 79 72 79 S9 29.98R ROCKY MOUNT PTSUNNY 75 72 90 SE3 29.97R WASHINGTON SUNNY 76 70 80 CALM 29.98R WHITEVILLE MOSUNNY 78 70 77 S8 29.96R $$ AMZ130-135-150-152-154-156-158-170-250-252-270-ANZ085-086-088-633-658-670-281500- MARINE OBSERVATIONS STATION/POSITION TIME TEMP WIND PRES WAVE SWELL AIR SEA DIR/SP/G HT/PER HT/PER (UTC) (F) (DEG/KT/KT) (MB) (FT/S) (FT/S) CHESAPEAKE LIGHT NOT AVBL 64 E VA BEACH 1350 74 74 30/ 12/ 14 1014.4 5/ 7 3/ 7 DUCK 1348 74 76 50/ 6/ 7 1014.6 2 E DUCK 1341 76 N/A 3/ 7 2/12 OREGON INLET 1348 76 76 20/ 6/ 9 1015.0 13E OREGON INLT 1400 76 N/A 4/ 8 3/ 8 HATTERAS CG 1348 75 76 360/ 8/ 10 1014.8 DIAMOND BUOY 1350 76 83 30/ 10/ 12 1014.7 4/12 3/12 CAPE LOOKOUT 1400 78 340/ 2/ 3 1015.0 BEAUFORT LAB 1348 77 76 30/ 3/ 4 1014.7 30 SE NEW RVR IN 1308 80 83 190/ 4/ 6 1014.4 30 SE NEW RVR IN 1355 83 N/A 3/ 7 2/12 27 SE WRIGHTSVLE 1308 80 81 180/ 2/ 4 1014.7 5 SE WRIGHTSVLE 1308 80 80 210/ 4/ 6 1016.0 225 S CAPE HAT 1350 82 83 190/ 8/ 10 1015.5 4/11 3/11 41 SE CHARLESTON 1350 81 82 220/ 4/ 4 1014.6 3/12 3/12 $$

USA.gov is the U.S. government's official web portal to all federal, state and local government web resources and services.